Raleigh-Durham Airport, NC

6:58 AM EST on January 19, 2018 (GMT -0500)
Raleigh-Durham International

Weather History for KRDU - April, 2013

Change the Weather History Date:

Thursday, April 18, 2013

  Actual Average Record
Temperature  
Mean Temperature 71 °F 61 °F  
Max Temperature 79 °F 73 °F 95 °F (1896)
Min Temperature 62 °F 49 °F 30 °F (1983)
Degree Days  
Heating Degree Days 0 6  
Month to date heating degree days 101 136  
Since 1 July heating degree days 3162 3132  
Cooling Degree Days 6 2  
Month to date cooling degree days 39 23  
Year to date cooling degree days 41 35  
Growing Degree Days 20 (Base 50)    
Moisture  
Dew Point 58 °F    
Average Humidity 68    
Maximum Humidity 90    
Minimum Humidity 45    
Precipitation  
Precipitation 0.00 in 0.09 in 0.81 in (1924)
Month to date precipitation 1.83 1.81  
Year to date precipitation 11.96 12.65  
Snow  
Snow 0.00 in 0.00 in 1.80 in (1983)
Month to date snowfall T 0.1  
Since 1 July snowfall 1.7 6.1  
Snow Depth 0.00 in    
Sea Level Pressure  
Sea Level Pressure 30.13 in    
Wind  
Wind Speed 9 mph (South)    
Max Wind Speed 18 mph    
Max Gust Speed 23 mph    
Visibility 10 miles    
Events      
T = Trace of Precipitation, MM = Missing Value Source: NWS Daily Summary

Daily Weather History Graph

Daily Weather History Graph

Search for Another Location

Airport or City:

Trip Planner

Search our weather history database for the weather conditions in past years. The results will help you decide how hot, cold, wet, or windy it might be!

Date:

Astronomy

Apr. 18, 2013 Rise Set
Actual Time 6:38 AM EDT 7:51 PM EDT
Civil Twilight 6:11 AM EDT 8:18 PM EDT
Nautical Twilight 5:39 AM EDT 8:49 PM EDT
Astronomical Twilight 5:06 AM EDT 9:22 PM EDT
Moon 12:50 PM EDT (4/18) 2:02 AM EDT (4/18)
Length of Visible Light 14h 06m
Length of Day
13h 13m
First Quarter, 51% of the Moon is Illuminated
Apr 18
First Quarter
Apr 25
Full
May 2
Last Quarter
May 9
New
May 18
First Quarter

Hourly Weather History & Observations

Time (EDT) Temp. Dew Point Humidity Pressure Visibility Wind Dir Wind Speed Gust Speed Precip Events Conditions
12:51 AM 69.1 °F 59.0 °F 70% 30.15 in 10.0 mi SSW 5.8 mph - N/A   Scattered Clouds
1:51 AM 66.9 °F 55.0 °F 66% 30.14 in 10.0 mi South 6.9 mph - N/A   Scattered Clouds
2:51 AM 64.9 °F 55.9 °F 73% 30.14 in 10.0 mi South 5.8 mph - N/A   Scattered Clouds
3:51 AM 64.0 °F 57.0 °F 78% 30.15 in 10.0 mi South 5.8 mph - N/A   Scattered Clouds
4:51 AM 63.0 °F 57.0 °F 81% 30.16 in 10.0 mi South 5.8 mph - N/A   Scattered Clouds
5:51 AM 62.1 °F 57.9 °F 86% 30.16 in 10.0 mi South 3.5 mph - N/A   Mostly Cloudy
6:51 AM 62.1 °F 57.9 °F 86% 30.18 in 10.0 mi South 4.6 mph - N/A   Mostly Cloudy
7:51 AM 63.0 °F 59.0 °F 87% 30.19 in 10.0 mi SE 4.6 mph - N/A   Mostly Cloudy
8:51 AM 66.9 °F 61.0 °F 81% 30.19 in 10.0 mi South 6.9 mph - N/A   Mostly Cloudy
9:51 AM 70.0 °F 60.1 °F 71% 30.20 in 10.0 mi SSW 11.5 mph - N/A   Mostly Cloudy
10:51 AM 71.1 °F 57.9 °F 63% 30.20 in 10.0 mi South 10.4 mph - N/A   Mostly Cloudy
11:51 AM 73.4 °F 57.2 °F 57% 30.19 in 10.0 mi SSE 11.5 mph - N/A   Mostly Cloudy
12:51 PM 73.9 °F 57.0 °F 55% 30.17 in 10.0 mi South 12.7 mph 18.4 mph N/A   Mostly Cloudy
1:51 PM 75.9 °F 57.0 °F 52% 30.14 in 10.0 mi South 12.7 mph - N/A   Mostly Cloudy
2:51 PM 78.1 °F 55.9 °F 46% 30.13 in 10.0 mi SW 10.4 mph 20.7 mph N/A   Mostly Cloudy
3:51 PM 75.9 °F 55.0 °F 48% 30.10 in 10.0 mi SSE 10.4 mph - N/A   Mostly Cloudy
4:51 PM 77.0 °F 57.9 °F 52% 30.08 in 10.0 mi South 10.4 mph - N/A   Mostly Cloudy
5:51 PM 77.0 °F 57.9 °F 52% 30.06 in 10.0 mi SSE 13.8 mph 18.4 mph N/A   Mostly Cloudy
6:51 PM 75.9 °F 57.0 °F 52% 30.05 in 10.0 mi SSE 11.5 mph - N/A   Mostly Cloudy
7:51 PM 73.0 °F 57.0 °F 57% 30.05 in 10.0 mi SSE 6.9 mph - N/A   Mostly Cloudy
8:51 PM 71.1 °F 57.0 °F 61% 30.06 in 10.0 mi South 11.5 mph - N/A   Scattered Clouds
9:51 PM 69.1 °F 57.9 °F 68% 30.06 in 10.0 mi SSE 10.4 mph - N/A   Scattered Clouds
10:51 PM 68.0 °F 59.0 °F 73% 30.06 in 10.0 mi SSE 13.8 mph 18.4 mph N/A   Scattered Clouds
11:51 PM 66.0 °F 60.1 °F 81% 30.06 in 10.0 mi South 6.9 mph - N/A   Mostly Cloudy